Location: Glasgow
(55.8642°N, 4.2518°W)
Time: 18:46:55
(UTC+00:00)

N. Korean satellite - Visible Passes

Search period start: 20 January 2018 00:00
Search period end: 30 January 2018 00:00
Orbit: 459 x 515 km, 97.2° (Epoch: 19 January)

Date Brightness Start Highest point End Pass type
(mag) Time Alt. Az. Time Alt. Az. Time Alt. Az.
20 Jan 7.2 07:01:51 10° NNE 07:05:17 56° E 07:08:41 10° S visible
20 Jan 6.4 17:45:01 10° SSE 17:48:35 71° ENE 17:52:07 10° N visible
20 Jan 9.9 19:20:38 10° WSW 19:22:32 14° W 19:24:26 10° NW visible
21 Jan 8.5 06:38:21 10° NNE 06:41:31 31° E 06:44:38 10° SSE visible
21 Jan 6.9 17:21:36 10° SE 17:24:58 41° ENE 17:28:19 10° N visible
21 Jan 9.2 18:55:47 10° SW 18:58:39 22° W 19:01:30 10° NW visible
22 Jan 9.5 06:15:07 10° NE 06:17:40 19° E 06:20:12 10° SE visible
22 Jan 8.2 18:31:30 10° SSW 18:34:49 37° W 18:38:08 10° NNW visible
23 Jan 10.1 05:52:30 10° ENE 05:53:44 11° E 05:54:58 10° ESE visible
23 Jan 6.4 07:24:18 10° NNE 07:27:47 82° WNW 07:31:15 10° SSW visible
23 Jan 6.9 18:07:33 10° S 18:11:05 66° WSW 18:14:35 10° NNW visible
24 Jan 7.3 07:00:39 10° NNE 07:04:05 55° E 07:07:29 10° S visible
24 Jan 6.4 17:43:52 10° SSE 17:47:24 70° ENE 17:50:54 10° N visible
24 Jan 9.9 19:19:26 10° WSW 19:21:20 14° W 19:23:14 10° NW visible
25 Jan 8.6 06:37:10 10° NNE 06:40:18 31° E 06:43:25 10° SSE visible
25 Jan 6.9 17:20:27 10° SE 17:23:46 39° ENE 17:27:04 10° N visible
25 Jan 9.2 18:54:36 10° SSW 18:57:26 22° W 19:00:16 10° NW visible
26 Jan 9.5 06:13:54 10° NE 06:16:26 19° E 06:18:58 10° SE visible
26 Jan 8.1 18:30:18 10° SSW 18:33:37 37° W 18:36:54 10° NNW visible
27 Jan 10.1 05:51:20 10° ENE 05:52:31 11° E 05:53:40 10° ESE visible
27 Jan 6.4 07:23:04 10° NNE 07:26:34 84° WNW 07:30:02 10° SSW visible
27 Jan 6.9 18:06:21 10° S 18:09:51 67° WSW 18:13:20 10° NNW visible
28 Jan 7.4 06:59:25 10° NNE 07:02:50 54° E 07:06:16 10° S visible
28 Jan 6.4 17:42:41 10° SSE 17:46:10 68° ENE 17:49:38 10° N visible
28 Jan 9.9 19:18:12 10° WSW 19:20:06 14° W 19:22:00 10° NW visible
29 Jan 8.6 06:35:55 10° NNE 06:39:03 30° E 06:42:11 10° SSE visible
29 Jan 9.2 18:53:22 10° SSW 18:56:12 23° W 18:59:01 10° NW visible
